Could not load TAF data: FEEDPACKAGE_TAF: could not Find TAF for station: KTPF
Sereno
Sereno
Sereno
Sereno
Sereno
Poco nuvoloso
Variabile
(°C)
23°
23°
22°
22°
20°
20°
19°
19°
19°
19°
18°
18°
18°
18°
(°C)
23°
21°
20°
20°
19°
19°
19°
NW
NW
NNW
NNW
NNE
NE
ENE
(km/h)
6-14
5-14
4-13
4-12
4-11
4-11
3-11
(mm)
0
0
0
0
0
0
0
(%)
0
0
0
0
0
0
0

Elevazione del sole

/ -3.9°
sun-icon
UV 10
07:03
19:55
Luna crescente (75°)
11:44
01:34

METAR per Tampa (KTPF)

Ora Condizioni Temperatura/
Punto di rugiada
Vento Visibilità Meteo Nuvole Pressione Cambiamento Grezzo
VFR 23°C / 10°C variable 0kt >10km - Clear - KTPF 142355Z AUTO 00000KT 10SM CLR 23/10 A3010 RMK AO2
VFR 25°C / 11°C 290º 7kt >10km - Clear - KTPF 142315Z AUTO 29007KT 10SM CLR 25/11 A3011 RMK AO2
VFR 25°C / 10°C 270º 4kt >10km - Clear - KTPF 142255Z AUTO 27004KT 10SM CLR 25/10 A3010 RMK AO2
VFR 26°C / 11°C 290º 5kt >10km - Clear - KTPF 142235Z AUTO 29005KT 10SM CLR 26/11 A3010 RMK AO2
VFR 26°C / 11°C 290º 7kt >10km - Clear - KTPF 142215Z AUTO 29007KT 10SM CLR 26/11 A3011 RMK AO2
VFR 26°C / 11°C 290º 7kt >10km - Clear - KTPF 142155Z AUTO 29007KT 10SM CLR 26/11 A3011 RMK AO2
VFR 27°C / 10°C 280º 7kt >10km - Clear - KTPF 142135Z AUTO 28007KT 10SM CLR 27/10 A3011 RMK AO2
VFR 28°C / 2°C 270º 6kt >10km - Clear - KTPF 142115Z AUTO 27006KT 10SM CLR 28/02 A3011 RMK AO2
VFR 28°C / 1°C 220º 4kt >10km - Clear - KTPF 142055Z AUTO 22004KT 10SM CLR 28/01 A3012 RMK AO2
VFR 28°C / 2°C 200º 7kt >10km - Clear - KTPF 142035Z AUTO 20007KT 10SM CLR 28/02 A3012 RMK AO2
VFR 28°C / 2°C 220º 4kt >10km - Clear - KTPF 142015Z AUTO 22004KT 10SM CLR 28/02 A3013 RMK AO2
VFR 28°C / 3°C 210º 6kt >10km - Clear - KTPF 141955Z AUTO 21006KT 10SM CLR 28/03 A3014 RMK AO2
VFR 28°C / 2°C 220º 5kt >10km - Clear - KTPF 141935Z AUTO 22005KT 10SM CLR 28/02 A3015 RMK AO2
VFR 28°C / 2°C 200º 5kt >10km - Clear - KTPF 141915Z AUTO 20005KT 10SM CLR 28/02 A3016 RMK AO2
VFR 28°C / 5°C 220º 6kt >10km - Clear - KTPF 141855Z AUTO 22006KT 10SM CLR 28/05 A3017 RMK AO2
VFR 28°C / 3°C 280º 4kt >10km - Scattered Clouds 10000ft - KTPF 141835Z AUTO 28004KT 10SM SCT100 28/03 A3018 RMK AO2
VFR 27°C / 5°C 230º 3kt >10km - Scattered Clouds 10000ft
Scattered Clouds 12000ft
- KTPF 141815Z AUTO 23003KT 10SM SCT100 SCT120 27/05 A3019 RMK AO2
VFR 27°C / 6°C variable 0kt >10km - Scattered Clouds 11000ft - KTPF 141755Z AUTO 00000KT 10SM SCT110 27/06 A3020 RMK AO2
VFR 27°C / 5°C 220º 3kt >10km - Clear - KTPF 141735Z AUTO 22003KT 10SM CLR 27/05 A3021 RMK AO2
VFR 27°C / 2°C 100º 3kt >10km - Clear - KTPF 141715Z AUTO 10003KT 10SM CLR 27/02 A3021 RMK AO2
VFR 27°C / 2°C 150º 5kt >10km - Scattered Clouds 9000ft
Scattered Clouds 11000ft
- KTPF 141655Z AUTO 15005KT 10SM SCT090 SCT110 27/02 A3022 RMK AO2
VFR 26°C / 5°C 220º 4kt >10km - Broken Clouds 10000ft
Broken Clouds 12000ft
- KTPF 141635Z AUTO 22004KT 10SM BKN100 BKN120 26/05 A3022 RMK AO2
VFR 25°C / 6°C 210º 4kt >10km - Overcast 10000ft - KTPF 141615Z AUTO 21004KT 10SM OVC100 25/06 A3022 RMK AO2
VFR 25°C / 6°C variable 0kt >10km - Overcast 10000ft - KTPF 141555Z AUTO 00000KT 10SM OVC100 25/06 A3023 RMK AO2

VFR

23°C / 10°C

[Più]
Vento variable 0kt
Visibilità >10km
Meteo -
Nuvole Clear
Pressione
Cambiamento -
Grezzo KTPF 142355Z AUTO 00000KT 10SM CLR 23/10 A3010 RMK AO2

VFR

25°C / 11°C

[Più]
Vento 290º 7kt
Visibilità >10km
Meteo -
Nuvole Clear
Pressione
Cambiamento -
Grezzo KTPF 142315Z AUTO 29007KT 10SM CLR 25/11 A3011 RMK AO2

VFR

25°C / 10°C

[Più]
Vento 270º 4kt
Visibilità >10km
Meteo -
Nuvole Clear
Pressione
Cambiamento -
Grezzo KTPF 142255Z AUTO 27004KT 10SM CLR 25/10 A3010 RMK AO2

VFR

26°C / 11°C

[Più]
Vento 290º 5kt
Visibilità >10km
Meteo -
Nuvole Clear
Pressione
Cambiamento -
Grezzo KTPF 142235Z AUTO 29005KT 10SM CLR 26/11 A3010 RMK AO2

VFR

26°C / 11°C

[Più]
Vento 290º 7kt
Visibilità >10km
Meteo -
Nuvole Clear
Pressione
Cambiamento -
Grezzo KTPF 142215Z AUTO 29007KT 10SM CLR 26/11 A3011 RMK AO2

VFR

26°C / 11°C

[Più]
Vento 290º 7kt
Visibilità >10km
Meteo -
Nuvole Clear
Pressione
Cambiamento -
Grezzo KTPF 142155Z AUTO 29007KT 10SM CLR 26/11 A3011 RMK AO2

VFR

27°C / 10°C

[Più]
Vento 280º 7kt
Visibilità >10km
Meteo -
Nuvole Clear
Pressione
Cambiamento -
Grezzo KTPF 142135Z AUTO 28007KT 10SM CLR 27/10 A3011 RMK AO2

VFR

28°C / 2°C

[Più]
Vento 270º 6kt
Visibilità >10km
Meteo -
Nuvole Clear
Pressione
Cambiamento -
Grezzo KTPF 142115Z AUTO 27006KT 10SM CLR 28/02 A3011 RMK AO2

VFR

28°C / 1°C

[Più]
Vento 220º 4kt
Visibilità >10km
Meteo -
Nuvole Clear
Pressione
Cambiamento -
Grezzo KTPF 142055Z AUTO 22004KT 10SM CLR 28/01 A3012 RMK AO2

VFR

28°C / 2°C

[Più]
Vento 200º 7kt
Visibilità >10km
Meteo -
Nuvole Clear
Pressione
Cambiamento -
Grezzo KTPF 142035Z AUTO 20007KT 10SM CLR 28/02 A3012 RMK AO2

VFR

28°C / 2°C

[Più]
Vento 220º 4kt
Visibilità >10km
Meteo -
Nuvole Clear
Pressione
Cambiamento -
Grezzo KTPF 142015Z AUTO 22004KT 10SM CLR 28/02 A3013 RMK AO2

VFR

28°C / 3°C

[Più]
Vento 210º 6kt
Visibilità >10km
Meteo -
Nuvole Clear
Pressione
Cambiamento -
Grezzo KTPF 141955Z AUTO 21006KT 10SM CLR 28/03 A3014 RMK AO2

VFR

28°C / 2°C

[Più]
Vento 220º 5kt
Visibilità >10km
Meteo -
Nuvole Clear
Pressione
Cambiamento -
Grezzo KTPF 141935Z AUTO 22005KT 10SM CLR 28/02 A3015 RMK AO2

VFR

28°C / 2°C

[Più]
Vento 200º 5kt
Visibilità >10km
Meteo -
Nuvole Clear
Pressione
Cambiamento -
Grezzo KTPF 141915Z AUTO 20005KT 10SM CLR 28/02 A3016 RMK AO2

VFR

28°C / 5°C

[Più]
Vento 220º 6kt
Visibilità >10km
Meteo -
Nuvole Clear
Pressione
Cambiamento -
Grezzo KTPF 141855Z AUTO 22006KT 10SM CLR 28/05 A3017 RMK AO2

VFR

28°C / 3°C

[Più]
Vento 280º 4kt
Visibilità >10km
Meteo -
Nuvole Scattered Clouds 10000ft
Pressione
Cambiamento -
Grezzo KTPF 141835Z AUTO 28004KT 10SM SCT100 28/03 A3018 RMK AO2

VFR

27°C / 5°C

[Più]
Vento 230º 3kt
Visibilità >10km
Meteo -
Nuvole Scattered Clouds 10000ft
Scattered Clouds 12000ft
Pressione
Cambiamento -
Grezzo KTPF 141815Z AUTO 23003KT 10SM SCT100 SCT120 27/05 A3019 RMK AO2

VFR

27°C / 6°C

[Più]
Vento variable 0kt
Visibilità >10km
Meteo -
Nuvole Scattered Clouds 11000ft
Pressione
Cambiamento -
Grezzo KTPF 141755Z AUTO 00000KT 10SM SCT110 27/06 A3020 RMK AO2

VFR

27°C / 5°C

[Più]
Vento 220º 3kt
Visibilità >10km
Meteo -
Nuvole Clear
Pressione
Cambiamento -
Grezzo KTPF 141735Z AUTO 22003KT 10SM CLR 27/05 A3021 RMK AO2

VFR

27°C / 2°C

[Più]
Vento 100º 3kt
Visibilità >10km
Meteo -
Nuvole Clear
Pressione
Cambiamento -
Grezzo KTPF 141715Z AUTO 10003KT 10SM CLR 27/02 A3021 RMK AO2

VFR

27°C / 2°C

[Più]
Vento 150º 5kt
Visibilità >10km
Meteo -
Nuvole Scattered Clouds 9000ft
Scattered Clouds 11000ft
Pressione
Cambiamento -
Grezzo KTPF 141655Z AUTO 15005KT 10SM SCT090 SCT110 27/02 A3022 RMK AO2

VFR

26°C / 5°C

[Più]
Vento 220º 4kt
Visibilità >10km
Meteo -
Nuvole Broken Clouds 10000ft
Broken Clouds 12000ft
Pressione
Cambiamento -
Grezzo KTPF 141635Z AUTO 22004KT 10SM BKN100 BKN120 26/05 A3022 RMK AO2

VFR

25°C / 6°C

[Più]
Vento 210º 4kt
Visibilità >10km
Meteo -
Nuvole Overcast 10000ft
Pressione
Cambiamento -
Grezzo KTPF 141615Z AUTO 21004KT 10SM OVC100 25/06 A3022 RMK AO2

VFR

25°C / 6°C

[Più]
Vento variable 0kt
Visibilità >10km
Meteo -
Nuvole Overcast 10000ft
Pressione
Cambiamento -
Grezzo KTPF 141555Z AUTO 00000KT 10SM OVC100 25/06 A3023 RMK AO2

rainNOW: Pioggia nowcast per Tampa e dintorni (raggio di 25 km)

0.0 mm
0.0 mm
0.0 mm
0.0 mm
0.0 mm
0.0 mm
0.0 mm
0.0 mm
0.0 mm
0.0 mm
0.0 mm
0.0 mm

Radar e nowcasting per Tampa

Pioviggine
Lieve
Moderato
Forte
Molto forte
Grandine

Il segnaposto è situato a Tampa. Questa animazione mostra il radar delle precipitazioni per l'intervallo di tempo selezionato, nonché una previsione di 1h. Le croci arancioni indicano i fulmini. Dati forniti da nowcast.de (disponibili in USA, Europa e Australia). La pioviggine o una leggera nevicata potrebbero essere invisibili per il radar. L'intensità delle precipitazioni è codificata a colori, che vanno dal turchese al rosso.

Immagine satellitare per Tampa, Stati Uniti

Il segnaposto è situato a Tampa. [Più]

L'immagine satellitare in tempo reale combina la luce visibile durante il giorno con la radiazione infrarossa durante la notte. Di notte l'immagine non è scura poiché i raggi infrarossi possono rilevare differenze di temperatura. Purtroppo, le nuvole basse e la nebbia sono difficili da distinguere dalla temperatura del suolo e possono pertanto essere quasi invisibili durante la notte. Le immagini satellitari Meteosat per l'Europa vengono aggiornate in tempo reale ogni 5 minuti. Le immagini GOES-16 / GOES-17 (Nord e Sud America) e Himawari (Asia) vengono aggiornate ogni 10 minuti.

Le precipitazioni sono stimate da radar e satelliti. I calcoli delle precipitazioni dai satelliti sono meno accurati di notte che durante il giorno.

© 2024 meteoblue, NOAA Satellites GOES-16 and EUMETSAT. Fulminazioni fornite da nowcast.

Could not load TAF data: FEEDPACKAGE_TAF: could not Find TAF for station: KTPF
Tornare su
×
Salve,
sembra che stiate usando un blocco degli annunci.

La pubblicità è essenziale per mantenere il nostro sito Web gratuito con dettagli e accuratezza unici.

Si prega di inserire www.meteoblue.com nella whitelist del vostro blocco degli annunci o di considerare l'acquisto di uno dei nostri prodotti:

Avete già un abbonamento?
Allora per favore eseguite il login.